TimeCST,TemperatureF,Dew PointF,Humidity,Sea Level PressureIn,VisibilityMPH,Wind Direction,Wind SpeedMPH,Gust SpeedMPH,PrecipitationIn,Events,Conditions,WindDirDegrees,DateUTC
12:15 AM,33.8,32.0,93,30.39,8.0,Calm,Calm,-,N/A,,Clear,0,2012-11-17 06:15:00
12:35 AM,33.8,32.0,93,30.39,8.0,Calm,Calm,-,N/A,,Clear,0,2012-11-17 06:35:00
12:55 AM,32.0,32.0,100,30.39,7.0,Calm,Calm,-,N/A,,Clear,0,2012-11-17 06:55:00
1:15 AM,32.0,32.0,100,30.39,8.0,Calm,Calm,-,N/A,,Clear,0,2012-11-17 07:15:00
1:35 AM,32.0,32.0,100,30.39,7.0,Calm,Calm,-,N/A,,Clear,0,2012-11-17 07:35:00
1:55 AM,32.0,30.2,93,30.39,7.0,Calm,Calm,-,N/A,,Clear,0,2012-11-17 07:55:00
2:15 AM,32.0,30.2,93,30.39,7.0,Calm,Calm,-,N/A,,Clear,0,2012-11-17 08:15:00
2:35 AM,30.2,28.4,93,30.39,7.0,Calm,Calm,-,N/A,,Clear,0,2012-11-17 08:35:00
2:55 AM,30.2,28.4,93,30.39,7.0,Calm,Calm,-,N/A,,Clear,0,2012-11-17 08:55:00
3:15 AM,30.2,28.4,93,30.38,5.0,Calm,Calm,-,N/A,,Clear,0,2012-11-17 09:15:00
3:35 AM,28.4,28.4,100,30.38,7.0,Calm,Calm,-,N/A,,Clear,0,2012-11-17 09:35:00
3:55 AM,30.2,28.4,93,30.38,7.0,Calm,Calm,-,N/A,,Clear,0,2012-11-17 09:55:00
4:15 AM,28.4,28.4,100,30.39,6.0,Calm,Calm,-,N/A,,Clear,0,2012-11-17 10:15:00
4:35 AM,28.4,26.6,93,30.39,5.0,Calm,Calm,-,N/A,,Clear,0,2012-11-17 10:35:00
4:55 AM,28.4,28.4,100,30.39,6.0,Calm,Calm,-,N/A,,Clear,0,2012-11-17 10:55:00
5:15 AM,28.4,28.4,100,30.40,6.0,Calm,Calm,-,N/A,,Clear,0,2012-11-17 11:15:00
5:35 AM,28.4,28.4,100,30.40,6.0,Calm,Calm,-,N/A,,Clear,0,2012-11-17 11:35:00
5:55 AM,28.4,28.4,100,30.40,7.0,Calm,Calm,-,N/A,,Clear,0,2012-11-17 11:55:00
6:15 AM,28.4,28.4,100,30.41,5.0,Calm,Calm,-,N/A,,Clear,0,2012-11-17 12:15:00
6:35 AM,28.4,28.4,100,30.42,5.0,Calm,Calm,-,N/A,,Clear,0,2012-11-17 12:35:00
6:55 AM,28.4,28.4,100,30.43,5.0,Calm,Calm,-,N/A,,Clear,0,2012-11-17 12:55:00
7:15 AM,30.2,28.4,93,30.43,5.0,Calm,Calm,-,N/A,,Clear,0,2012-11-17 13:15:00
7:35 AM,32.0,30.2,93,30.44,6.0,Calm,Calm,-,N/A,,Clear,0,2012-11-17 13:35:00
7:55 AM,37.4,32.0,81,30.45,7.0,Calm,Calm,-,N/A,,Clear,0,2012-11-17 13:55:00
8:15 AM,39.2,32.0,75,30.45,8.0,ENE,4.6,-,N/A,,Clear,70,2012-11-17 14:15:00
8:35 AM,42.8,32.0,66,30.45,8.0,East,5.8,-,N/A,,Clear,80,2012-11-17 14:35:00
8:55 AM,46.4,32.0,57,30.46,7.0,ENE,5.8,-,N/A,,Clear,70,2012-11-17 14:55:00
9:15 AM,48.2,32.0,54,30.46,8.0,NE,3.5,-,N/A,,Clear,50,2012-11-17 15:15:00
9:35 AM,50.0,32.0,50,30.46,8.0,ESE,4.6,-,N/A,,Clear,110,2012-11-17 15:35:00
9:55 AM,53.6,32.0,44,30.46,9.0,Calm,Calm,-,N/A,,Clear,0,2012-11-17 15:55:00
10:35 AM,55.4,32.0,41,30.45,8.0,ENE,3.5,-,N/A,,Clear,60,2012-11-17 16:35:00
11:55 AM,59.0,30.2,34,30.41,9.0,Calm,Calm,-,N/A,,Clear,0,2012-11-17 17:55:00
12:15 PM,60.8,28.4,29,30.40,8.0,NNE,3.5,-,N/A,,Clear,20,2012-11-17 18:15:00
12:35 PM,62.6,32.0,32,30.39,8.0,ENE,3.5,-,N/A,,Clear,60,2012-11-17 18:35:00
1:15 PM,62.6,30.2,30,30.38,9.0,Calm,Calm,-,N/A,,Clear,0,2012-11-17 19:15:00
1:35 PM,62.6,32.0,32,30.37,9.0,NE,3.5,-,N/A,,Clear,40,2012-11-17 19:35:00
1:55 PM,62.6,30.2,30,30.36,9.0,NNE,4.6,-,N/A,,Clear,20,2012-11-17 19:55:00
2:15 PM,62.6,30.2,30,30.36,9.0,Calm,Calm,-,N/A,,Clear,0,2012-11-17 20:15:00
2:35 PM,62.6,30.2,30,30.36,9.0,Calm,Calm,-,N/A,,Clear,0,2012-11-17 20:35:00
2:55 PM,62.6,28.4,27,30.36,9.0,Calm,Calm,-,N/A,,Clear,0,2012-11-17 20:55:00
3:15 PM,62.6,28.4,27,30.36,9.0,Calm,Calm,-,N/A,,Clear,0,2012-11-17 21:15:00
3:55 PM,60.8,30.2,31,30.36,9.0,NNE,3.5,-,N/A,,Clear,30,2012-11-17 21:55:00
4:15 PM,59.0,30.2,34,30.36,8.0,NE,3.5,-,N/A,,Clear,40,2012-11-17 22:15:00
4:35 PM,57.2,32.0,38,30.36,9.0,ENE,3.5,-,N/A,,Clear,70,2012-11-17 22:35:00
4:55 PM,51.8,33.8,50,30.36,9.0,Calm,Calm,-,N/A,,Clear,0,2012-11-17 22:55:00
5:15 PM,50.0,32.0,50,30.36,10.0,Calm,Calm,-,N/A,,Clear,0,2012-11-17 23:15:00
5:55 PM,46.4,35.6,66,30.36,10.0,Calm,Calm,-,N/A,,Clear,0,2012-11-17 23:55:00
6:15 PM,44.6,35.6,71,30.37,10.0,Calm,Calm,-,N/A,,Clear,0,2012-11-18 00:15:00
6:35 PM,41.0,33.8,76,30.37,10.0,Calm,Calm,-,N/A,,Clear,0,2012-11-18 00:35:00
6:55 PM,41.0,33.8,76,30.36,10.0,Calm,Calm,-,N/A,,Clear,0,2012-11-18 00:55:00
7:15 PM,39.2,33.8,81,30.36,10.0,Calm,Calm,-,N/A,,Clear,0,2012-11-18 01:15:00
7:35 PM,39.2,33.8,81,30.37,10.0,Calm,Calm,-,N/A,,Clear,0,2012-11-18 01:35:00
7:55 PM,39.2,32.0,75,30.37,9.0,Calm,Calm,-,N/A,,Clear,0,2012-11-18 01:55:00
8:15 PM,37.4,32.0,81,30.37,10.0,Calm,Calm,-,N/A,,Clear,0,2012-11-18 02:15:00
8:55 PM,37.4,32.0,81,30.39,10.0,Calm,Calm,-,N/A,,Clear,0,2012-11-18 02:55:00
9:15 PM,37.4,32.0,81,30.39,10.0,Calm,Calm,-,N/A,,Clear,0,2012-11-18 03:15:00
9:35 PM,37.4,32.0,81,30.39,10.0,Calm,Calm,-,N/A,,Clear,0,2012-11-18 03:35:00
9:55 PM,35.6,32.0,87,30.39,10.0,Calm,Calm,-,N/A,,Clear,0,2012-11-18 03:55:00
10:15 PM,35.6,32.0,87,30.40,10.0,Calm,Calm,-,N/A,,Clear,0,2012-11-18 04:15:00
10:35 PM,35.6,32.0,87,30.40,10.0,Calm,Calm,-,N/A,,Clear,0,2012-11-18 04:35:00
10:55 PM,35.6,32.0,87,30.40,8.0,Calm,Calm,-,N/A,,Clear,0,2012-11-18 04:55:00
11:15 PM,33.8,32.0,93,30.40,9.0,Calm,Calm,-,N/A,,Clear,0,2012-11-18 05:15:00
11:35 PM,32.0,32.0,100,30.40,8.0,Calm,Calm,-,N/A,,Clear,0,2012-11-18 05:35:00
11:55 PM,32.0,32.0,100,30.39,9.0,Calm,Calm,-,N/A,,Clear,0,2012-11-18 05:55:00